SKYNET 4C

Last updated on Tue Dec 16 2025 00:02:47 GMT+0000 (Coordinated Universal Time)

1 20776U 90079A 25349.13644479 .00000135 00000+0 00000+0 0 9995 2 20776 13.4160 351.0624 0003270 275.9403 259.5647 1.00270112129040
UTC large
Height (km)
Speed (km/s)
/
Latitude / Longitude
Inclination (degrees)
Orbital Period (minutes)
Azimuth
Elevation
Range (km)
Doppler Factor

Next 0 passes for location: London (51.5072 / 0.1276)

Sorry there are no passes over London.